Theta_e
301 298 299 299 298 297 293 292 291 291 292 291 289 288 288 287 286 286 287 287 287 286 285 284 284 284 284 284 284 283 283 282 283 281 282 282 284 285 284 286 286 287 289
296 297 296 297 297 295 293 292 291 291 292 292 291 288 287 287 286 287 286 286 286 286 285 284 283 283 282 282 282 282 281 282 282 280 279 278 281 284 284 283 285 285 287
297 296 294 296 296 294 292 292 291 291 292 291 289 287 287 285 284 284 284 285 285 285 284 283 283 282 282 281 281 281 281 280 280 281 279 277 276 278 282 283 283 283 283
294 295 294 294 294 294 293 292 292 290 291 290 289 288 286 286 287 287 285 284 285 284 284 283 282 281 281 281 281 282 281 280 279 280 282 280 279 277 276 280 281 284 283
294 293 294 296 295 294 292 292 291 290 290 290 290 289 287 287 283 283 283 284 283 283 283 283 282 281 281 280 281 281 280 280 279 279 280 279 279 279 277 275 277 281 283
294 294 295 295 293 291 292 290 290 290 290 289 289 288 287 284 283 284 284 283 283 282 282 282 281 281 280 280 280 280 280 279 279 280 280 279 278 278 277 276 277 277 279
293 292 291 292 291 290 290 290 289 289 290 289 289 288 287 286 285 284 284 283 282 281 281 281 280 280 280 280 280 279 279 279 278 278 278 280 280 280 279 278 276 276 278
293 292 293 292 291 291 289 290 289 289 289 289 288 288 287 286 286 284 284 283 283 282 281 280 280 279 279 279 279 278 278 278 279 278 279 279 279 280 280 278 276 273 275
291 292 291 290 290 289 289 289 289 289 288 289 289 288 287 287 286 284 283 283 282 281 280 280 279 278 278 278 278 278 278 278 278 279 279 279 279 280 279 279 278 275 271
291 292 292 291 291 290 290 289 290 289 288 288 288 288 286 286 286 283 282 281 280 279 279 278 278 277 277 278 277 277 278 277 278 279 279 279 279 278 278 278 278 277 274
292 292 292 291 291 290 289 289 288 288 288 287 287 287 286 285 283 283 282 281 280 278 278 277 277 277 277 277 276 276 277 277 277 278 277 277 277 276 276 277 276 275 275
293 293 292 290 290 290 290 289 289 288 288 287 286 286 284 282 282 282 280 279 279 278 277 277 277 276 276 276 276 275 276 276 276 275 275 275 276 274 275 274 274 274 274
293 292 291 290 291 291 290 289 289 288 287 287 284 284 282 281 281 280 278 278 277 277 277 276 275 275 276 275 275 275 275 275 274 274 274 274 273 273 273 273 273 274 275
292 292 291 290 290 290 290 289 289 288 286 285 284 283 282 282 280 278 278 277 277 276 275 275 275 276 276 276 275 275 274 274 274 274 274 274 274 274 274 274 274 274 273
292 292 292 291 291 290 288 288 288 286 285 284 284 283 282 281 278 277 277 276 276 275 275 275 275 275 275 275 274 274 274 274 273 274 275 275 275 276 276 275 275 275 274
295 295 293 291 289 287 289 286 286 284 284 284 283 282 279 278 277 277 276 275 275 274 275 274 274 273 274 276 278 276 275 275 274 274 274 275 274 275 277 278 279 278 275
295 293 293 292 290 289 286 285 285 283 283 283 282 279 278 277 276 276 275 274 274 274 274 273 273 273 273 277 277 278 276 275 274 274 274 274 275 275 275 277 278 278 278
293 293 291 291 289 287 286 283 281 281 282 280 279 277 276 276 275 274 274 274 274 273 273 273 273 273 273 276 277 277 275 275 274 273 274 274 274 275 275 274 274 275 275
297 296 293 290 289 287 284 281 279 280 279 278 277 275 275 274 274 273 273 273 273 273 273 273 272 272 272 275 275 275 274 274 273 274 275 275 274 275 277 275 274 273 274
291 289 288 287 286 283 280 279 277 278 278 278 277 275 275 274 273 273 273 273 273 273 273 272 272 271 269 273 275 276 274 270 272 274 275 275 275 276 278 275 273 270 270
284 284 282 283 283 279 278 277 276 277 278 276 275 274 274 274 274 273 273 272 272 272 271 271 270 270 270 271 275 275 275 272 272 272 271 272 274 277 277 277 271 270 274
288 283 281 280 279 278 277 276 276 276 274 274 273 273 273 273 272 272 272 272 271 269 269 268 269 270 271 272 274 275 275 276 269 270 271 272 275 274 275 273 274 275 274
289 286 280 279 277 276 276 275 275 275 273 272 272 271 271 271 271 270 270 269 269 268 267 268 268 269 271 271 273 273 274 274 272 271 273 272 272 272 270 271 272 270 267
287 286 279 279 278 276 277 278 275 275 273 272 270 269 270 269 270 271 270 269 268 268 268 269 268 268 269 269 270 270 272 273 271 271 266 269 269 269 269 267 268 268 267
286 284 285 284 283 279 277 276 275 273 272 270 270 269 269 269 268 269 269 268 270 270 269 269 269 267 267 268 271 272 271 265 270 261 260 261 263 263 264 265 265 266 266
283 284 282 281 282 277 277 276 275 273 272 270 269 269 269 268 268 268 268 273 272 275 274 274 270 270 271 274 274 273 272 271 270 256 253 259 261 262 262 263 263 264 265
Wind_Speed
22 11 16 17 18 16 17 19 18 16 14 9 9 6 9 5 4 5 8 8 7 6 6 4 5 4 4 4 3 1 3 3 4 4 4 4 5 1 3 4 3 5 5
9 9 11 15 20 20 19 19 20 19 15 12 10 5 5 3 3 4 6 7 8 7 6 6 5 5 4 4 3 3 2 3 4 3 2 5 6 4 9 3 3 5 4
13 10 11 18 17 19 22 21 21 19 17 12 8 4 4 3 4 4 5 5 8 7 7 7 6 6 4 4 3 4 4 1 2 3 1 3 3 7 3 7 5 4 3
9 9 11 14 19 19 18 19 19 19 16 16 14 15 10 10 8 8 6 6 9 8 8 7 6 6 4 5 4 4 3 3 2 1 1 2 2 3 8 5 5 11 7
11 11 17 21 19 17 19 18 19 18 17 18 17 14 11 8 4 4 9 10 7 8 7 7 7 6 4 5 5 4 4 2 2 3 0 1 2 4 5 9 4 8 9
10 9 9 9 12 10 13 14 18 18 16 18 18 19 16 10 7 9 10 8 7 7 8 7 6 6 5 5 5 4 4 4 2 2 2 3 3 2 3 7 10 13 9
8 9 11 12 11 14 15 14 16 17 16 18 17 17 17 16 15 12 11 11 8 7 9 8 7 5 6 6 5 5 4 3 2 4 4 3 5 4 5 8 11 9 8
9 10 12 12 13 16 15 16 17 17 17 18 18 15 15 11 10 12 9 10 10 10 9 9 8 7 7 6 6 3 3 4 4 5 4 4 4 4 6 7 9 14 9
9 11 9 10 11 13 16 18 16 16 15 18 16 16 14 17 14 13 10 9 8 7 9 10 9 8 8 7 7 4 5 5 4 5 5 5 5 4 5 6 6 7 11
8 8 9 11 10 10 13 13 13 17 14 15 15 14 14 15 13 12 14 11 9 8 10 9 9 8 7 7 7 5 4 5 4 4 5 5 4 5 5 6 6 7 10
10 10 9 8 10 9 12 13 13 15 15 15 16 16 14 12 10 12 13 13 11 11 10 10 9 8 7 7 6 5 5 5 5 5 6 8 7 6 6 6 7 8 8
9 8 9 8 11 14 12 16 15 16 17 15 14 15 11 11 13 12 11 11 13 11 11 10 9 8 7 7 6 6 5 5 5 5 6 7 7 8 7 7 9 10 11
7 7 7 11 13 12 12 13 14 18 15 14 14 14 13 14 14 13 12 12 11 10 9 9 9 7 7 6 6 5 5 5 5 5 7 8 8 9 8 10 9 10 10
9 9 8 8 10 12 13 14 15 15 14 14 14 15 16 16 13 12 13 13 12 12 10 9 8 7 6 6 6 5 5 5 5 6 7 8 9 11 12 11 12 13 13
8 10 10 9 11 11 11 11 12 12 13 15 15 16 14 14 13 14 14 12 12 11 10 9 8 8 7 5 6 6 5 5 5 7 9 9 11 20 19 12 12 13 13
19 15 11 12 13 12 14 12 12 13 14 16 17 15 16 16 17 16 15 14 12 11 11 9 9 8 5 10 11 8 6 6 6 7 8 10 12 15 23 25 28 25 18
18 10 13 16 14 11 11 12 13 9 13 12 11 13 14 15 14 14 14 13 13 11 10 9 9 8 7 11 10 9 5 4 5 7 9 10 9 14 14 20 27 27 30
11 11 10 12 11 9 9 6 9 11 12 10 11 13 14 14 14 14 15 14 12 12 10 9 8 7 7 10 10 8 5 4 5 8 10 12 13 13 16 17 17 18 18
16 15 12 11 8 9 8 8 9 10 12 13 14 15 16 17 17 16 14 11 12 12 12 10 11 9 7 11 9 8 4 5 7 9 10 11 11 19 25 18 17 19 19
13 10 7 5 6 7 8 11 10 11 14 16 16 15 15 15 15 14 14 11 10 10 9 9 9 9 7 11 10 8 4 4 5 7 7 13 16 23 25 18 15 16 19
11 9 8 8 6 4 6 8 10 14 8 8 11 13 14 16 15 15 12 11 10 10 10 9 8 8 8 7 10 9 3 3 4 3 6 7 19 24 27 26 13 16 23
15 8 7 4 5 5 4 5 9 6 9 10 11 12 13 12 13 16 13 15 13 11 9 10 8 6 7 11 9 7 6 7 2 3 6 9 22 22 23 19 24 28 25
15 7 3 6 4 4 2 3 1 5 9 10 10 9 11 11 14 16 15 11 11 10 10 8 8 8 7 4 8 3 6 6 3 4 10 18 17 18 15 20 24 20 11
13 9 4 7 9 9 11 11 10 11 11 11 10 11 12 11 12 11 12 12 12 10 9 9 8 7 7 5 4 4 4 3 4 4 5 10 12 14 14 11 12 9 10
13 8 11 13 15 7 11 10 13 14 15 13 11 11 10 12 12 11 12 13 12 14 13 10 9 9 7 6 9 7 4 3 2 2 2 4 6 7 8 8 10 9 10
14 14 11 11 15 9 11 13 15 18 17 17 17 18 16 14 12 11 10 16 17 21 23 22 14 8 11 12 9 6 5 1 7 3 2 4 6 7 8 9 10 11 13
Wind_Direction
250 207 203 189 179 176 169 173 167 170 165 169 172 174 188 181 183 179 167 163 162 168 164 155 154 157 163 168 158 148 57 5 347 346 318 307 284 308 360 311 313 308 304
253 220 191 181 179 175 173 172 175 173 178 177 179 168 149 181 165 174 170 171 166 171 169 166 170 170 162 150 127 91 54 34 31 23 316 345 333 346 329 343 336 331 347
239 223 180 187 175 176 176 177 178 177 179 171 155 108 104 89 158 191 177 188 174 172 170 171 169 175 164 167 143 122 119 137 358 74 138 333 312 325 330 329 331 325 331
222 205 183 181 185 186 176 175 176 177 178 169 175 184 192 190 197 184 177 173 179 178 177 174 172 177 170 156 154 145 145 138 203 340 228 246 161 298 323 334 318 303 297
208 198 189 190 190 177 176 175 175 178 178 179 184 190 200 194 150 145 167 181 182 181 178 174 174 177 166 162 166 156 151 166 170 177 17 306 267 220 241 297 301 306 303
202 201 190 166 173 164 171 173 176 183 180 181 188 195 193 178 164 178 183 186 184 186 184 178 173 169 165 167 170 175 178 183 181 186 219 221 244 268 271 280 292 283 277
170 166 164 173 167 171 175 177 181 188 186 188 192 194 196 187 191 184 187 181 181 189 192 175 169 166 167 175 167 164 164 178 183 208 224 224 237 248 265 285 292 283 299
191 183 182 180 180 181 178 181 186 190 186 190 196 195 194 192 196 189 184 189 190 189 175 175 169 169 167 163 157 149 173 193 219 227 221 237 242 242 258 263 295 305 292
192 196 188 184 179 178 185 190 190 195 193 195 193 197 192 195 196 188 182 182 175 173 171 169 165 161 163 167 164 168 182 201 209 216 222 225 245 234 244 251 260 278 304
207 213 202 189 186 188 190 193 197 198 194 195 201 199 196 200 191 174 183 176 168 158 161 161 161 163 161 162 163 174 184 202 209 223 230 245 252 249 249 257 259 254 266
216 210 212 194 191 189 184 188 192 197 203 198 195 196 196 190 176 183 185 174 157 157 162 166 161 165 170 169 164 175 184 205 222 232 243 252 256 257 258 259 257 256 252
213 210 208 181 194 201 196 198 200 199 207 201 194 197 181 172 181 186 175 159 161 159 163 161 169 171 169 161 162 174 192 206 230 241 245 257 262 264 265 263 260 257 252
247 225 201 203 211 208 201 204 201 208 201 192 189 186 183 181 186 179 166 160 153 156 155 161 168 171 167 162 164 175 188 206 220 235 251 263 267 271 270 265 263 262 262
226 224 224 215 218 214 209 209 211 203 191 188 187 188 188 186 177 164 160 161 161 157 161 164 161 165 159 159 172 193 196 207 225 243 253 263 265 268 272 270 271 266 265
231 221 219 222 229 223 220 214 209 191 181 186 189 192 180 174 162 160 160 158 161 161 160 156 155 160 160 168 177 195 207 222 238 253 263 269 269 272 276 276 272 270 267
247 245 239 232 240 217 219 211 202 187 179 190 194 177 167 165 172 167 160 156 160 156 159 163 160 162 169 189 203 193 193 222 249 271 275 274 273 276 281 283 287 282 282
253 231 237 235 233 231 209 203 205 170 181 187 182 172 167 165 170 161 157 161 162 156 166 158 160 167 175 194 201 221 220 234 260 271 279 283 281 277 279 281 285 287 281
247 239 237 233 221 219 209 158 149 163 170 169 166 165 161 160 165 162 167 160 158 160 162 160 161 164 179 190 206 215 223 235 261 268 271 273 280 284 296 287 284 281 282
272 256 243 229 229 206 180 157 155 158 159 170 170 167 164 163 171 172 167 161 157 153 158 162 161 169 171 185 201 212 196 238 259 261 271 276 290 294 298 296 296 296 295
313 310 277 230 204 208 157 148 158 160 184 183 176 165 161 164 165 163 164 162 163 156 146 155 166 162 167 194 200 212 205 212 247 268 280 295 299 304 302 309 304 307 306
330 340 350 318 298 145 144 152 158 192 176 153 156 161 166 164 162 155 155 151 150 147 149 157 155 162 176 190 200 220 200 213 244 289 296 292 300 308 317 313 319 299 304
324 332 322 311 345 335 317 166 192 138 130 147 161 167 164 161 153 153 152 152 151 151 157 157 155 174 178 192 200 210 259 281 123 285 295 288 315 320 320 322 313 314 321
308 308 222 284 236 211 219 210 12 134 137 146 160 163 160 161 161 155 151 151 153 157 165 162 168 157 170 174 189 211 256 321 321 285 309 325 327 327 320 317 320 320 304
287 282 237 242 233 208 194 211 172 156 153 161 166 158 167 167 164 161 159 158 164 162 163 168 162 166 156 168 184 210 231 247 267 328 322 330 332 327 318 311 306 302 304
288 272 278 274 268 204 206 189 172 162 162 162 166 169 176 179 172 173 169 165 175 173 163 165 158 163 168 179 194 191 181 186 255 71 10 330 328 326 319 308 309 311 309
291 290 282 271 270 245 218 198 186 180 180 177 178 179 174 178 179 168 159 175 168 169 154 154 146 161 164 171 154 148 112 80 44 60 26 312 309 305 311 311 319 318 313